Location: Valencia
(39.4696°N, 0.3770°W)
Time: 17:52:27
(UTC+01:00)

ISS - Visible Passes

Search period start: 26 February 2017 00:00
Search period end: 08 March 2017 00:00
Orbit: 399 x 408 km, 51.6° (Epoch: 26 February)

Date Brightness Start Highest point End Pass type
(mag) Time Alt. Az. Time Alt. Az. Time Alt. Az.
28 Feb -0.4 06:45:08 10° S 06:47:25 18° SE 06:49:43 10° E visible
02 Mar -2.2 06:35:25 10° SSW 06:38:33 43° SE 06:41:43 10° ENE visible
03 Mar -1.1 05:44:57 18° SSE 05:46:07 22° SE 05:48:45 10° E visible
04 Mar -3.4 06:27:40 20° WSW 06:29:48 73° NW 06:33:05 10° NE visible
05 Mar -2.6 05:37:34 51° ESE 05:37:34 51° ESE 05:40:28 10° ENE visible
06 Mar 0.2 04:47:18 12° ENE 04:47:18 12° ENE 04:47:34 10° ENE visible
06 Mar -2.3 06:19:57 25° WNW 06:21:07 33° NNW 06:24:08 10° NE visible
07 Mar -1.9 05:29:34 34° NNE 05:29:34 34° NNE 05:31:41 10° NE visible
